Flag for Canada Weather past 2 weeks in Paradise, Newfoundland and Labrador, Canada

Now
50 °F

Drizzle. Low clouds.


Feels Like: 50 °F
Forecast: 49 / 64 °F
Wind: 2 mph from North

Location: St. John's

Current Time: Jul 31, 2015 at 10:02:24 PM

Latest Report: Jul 31, 2015 at 9:30 PM


Visibility: 15 mi

Pressure: 29.93 "Hg

Humidity: 100%

Dew point: 50 °F

Location of ParadiseLocation

Historic Weather in Paradise — Graph

°F

Paradise temperature yesterday

Maximum temperature yesterday: 54 °F (at 3:30 AM)
Minimum temperature yesterday: 50 °F (at 12:30 AM)
Average temperature yesterday: 53 °F

Past Weeks' High & Low Weather Summary

 TemperatureHumidityPressure
High68 °F (Jul 16, 8:30 PM)100% (Jul 18, 1:30 AM)30.24 "Hg (Jul 18, 1:30 AM)
Low43 °F (Jul 25, 3:30 AM)63% (Jul 18, 4:30 PM)29.26 "Hg (Jul 23, 11:30 AM)
Average51 °F92%29.93 "Hg
* Reported Jul 16 8:30 PM — Jul 31 8:30 PM, Paradise, Weather by CustomWeather, © 2015

Note: Actual official high and low records may vary slightly from our data, if they occured in-between our weather recording intervals... More about our weather records

Advertising

Paradise weather history for previous 24 hours

 ConditionsComfort  
Time TempWeatherWind HumidityBarometerVisibility
8:30 PM
Fri, Jul 31
50 °FDrizzle. Fog.3 mph100%29.92 "Hg5 mi
8:17 PM50 °FDrizzle. Fog.5 mph100%29.92 "Hg5 mi
7:30 PM52 °FFog.3 mph94%29.91 "Hg6 mi
6:30 PM54 °FMore clouds than sun.10 mph94%29.89 "Hg15 mi
5:30 PM54 °FMore clouds than sun.10 mph94%29.91 "Hg10 mi
4:30 PM55 °FOvercast.14 mph88%29.90 "Hg15 mi
3:30 PM55 °FLow clouds.12 mph88%29.88 "Hg15 mi
2:30 PM55 °FBroken clouds.18 mph88%29.87 "Hg10 mi
1:30 PM54 °FLow clouds.15 mph94%29.88 "Hg15 mi
12:30 PM54 °FLow clouds.18 mph94%29.86 "Hg12 mi
11:30 AM52 °FLow clouds.17 mph100%29.85 "Hg10 mi
10:30 AM52 °FLow clouds.13 mph94%29.85 "Hg12 mi
9:30 AM50 °FLow clouds.20 mph100%29.83 "Hg12 mi
8:30 AM50 °FLow clouds.22 mph94%29.82 "Hg15 mi
7:30 AM48 °FDrizzle. Low clouds.21 mph100%29.80 "Hg15 mi
6:30 AM48 °FDrizzle. Fog.17 mph100%29.78 "Hg3 mi
5:30 AM48 °FDrizzle. Fog.20 mph100%29.77 "Hg3 mi
4:30 AM48 °FDrizzle. Fog.17 mph100%29.75 "Hg4 mi
3:30 AM48 °FDrizzle. Fog.16 mph100%29.75 "Hg3 mi
2:30 AM48 °FCool.17 mph100%29.74 "Hg3 mi
1:30 AM48 °FDrizzle. Fog.15 mph100%29.74 "Hg1 mi
12:30 AM50 °FDrizzle. Low clouds.15 mph100%29.73 "Hg8 mi
11:30 PM
Thu, Jul 30
50 °FDrizzle. Fog.14 mph100%29.72 "Hg1 mi
10:30 PM52 °FDrizzle. Fog.12 mph100%29.70 "Hg1 mi
Weather by CustomWeather, © 2015

See weather overviewHow to use our weather pages